Location: Casone le Fosse
(44.6547°N, 12.1103°E)
Time: 08:16:57
(UTC+00:00)

Aureole 3 - Pass Details

Date: 29 October 2020
Orbit: 382 x 1232 km, 82.5° (Epoch: 27 November)

Event Time Altitude Azimuth Distance (km) Brightness Sun altitude
Rises 17:29:23 0° 203° (SSW) 2,379 7.0 -15.7°
Reaches altitude 10° 17:31:34 10° 212° (SSW) 1,459 6.0 -16.0°
Maximum altitude 17:34:27 36° 282° (WNW) 629 4.2 -16.6°
Drops below altitude 10° 17:37:15 10° 352° (N) 1,416 5.5 -17.1°
Sets 17:39:20 0° 1° (N) 2,298 6.5 -17.4°
